Location: Mercogliano
(40.9167°N, 14.7333°E)
Time: 05:00:17
(UTC+00:00)

DELTA 2 R/B (1) - Pass Details

Date: 18 September 2020
Orbit: 790 x 803 km, 39.6° (Epoch: 25 October)

Event Time Altitude Azimuth Distance (km) Brightness Sun altitude
Rises 17:51:25 0° 276° (W) 3,277 9.1 -9.6°
Reaches altitude 10° 17:53:54 10° 274° (W) 2,347 7.6 -10.1°
Maximum altitude 17:59:23 66° 193° (SSW) 860 3.8 -11.1°
Enters shadow 18:03:51 16° 114° (ESE) 1,983 5.0 -11.9°
